Starlink 4469

operational
NORAD ID: 53657 Int'l Des: 2022-105 Owner: SPXS Country: US Constellation: starlink
LEOCIRCULARRETROGRADE

关于 Starlink 4469

正在加载描述...

实时位置

正在加载3D地球...

即将过境

高度历史

Altitude vs Time

uPlot chart will show altitude changes over time

两行轨道根数

1 53657U 22105K 25306.43523328 .00001026 00000-0 66492-5 0 9993
2 53657 97.6515 193.4920 0001633 114.2577 245.8860 15.79056358174610
Epoch: Nov 2, 2025 • Age: 8 hours

当前状态

高度 345.5 km
速度 7.71 km/s
星下点 80.73°N, 109.75°E
发射日期 Aug 31, 2022
运行时间 3.1 years
类型 internet

技术详情

分类 Payload
质量 300.00 kg
干质量 290.00 kg
总质量 300.00 kg
长度 0.20 m
直径 2.80 m
跨度 9.00 m
形状 Box + pan
制造商 SPXS
平台类型 Starlink
阶段状态 In Orbit
所有者/国家 SPXS/US

大型星座

Loading constellations...